RH
10 10 12 13 13 12 14 20 28 36 46 54 54 57 63 67 72 73 73 74 74 78 81 83 82 80 79 80 81 80 78 77 77 76 73 73 74 75 74 76 83 83 70 49 34 29 30 38 42 40 42 45 44 42 37 36 40 40 47 66 83 89 85 78 68 58 48 39 31 24 19 14 11 9 8 7 7 7 6 6 6 6 6 5 5 5 5 5 5 5 5 4 5 4 4 5 5
11 11 11 12 14 19 28 37 49 59 69 74 69 72 79 77 75 73 72 72 75 81 84 86 85 83 82 82 83 83 84 84 80 80 80 79 80 81 81 86 85 73 57 40 31 31 36 43 45 44 47 50 49 44 38 41 44 46 65 86 91 84 72 60 48 40 32 25 19 14 11 8 7 7 7 7 7 6 6 6 6 5 5 5 5 5 5 5 5 5 5 5 5 5 5 5 5
11 12 16 22 29 39 48 57 65 72 80 83 77 76 80 76 73 72 71 72 78 83 85 87 89 87 84 83 82 83 86 87 80 77 82 83 84 84 85 86 74 58 46 38 35 36 39 44 50 59 67 65 60 57 57 65 65 70 89 93 81 68 55 43 34 28 22 16 11 9 8 8 7 7 7 6 6 6 6 5 5 5 5 5 5 5 5 5 5 5 5 5 5 5 5 5 5
17 23 32 40 51 58 62 68 72 78 82 82 81 79 78 76 75 74 73 77 83 85 86 89 90 87 83 82 82 82 80 78 74 67 67 72 75 70 68 67 53 42 40 46 45 41 48 55 67 85 91 83 80 86 89 92 90 92 93 80 65 52 40 28 20 15 11 9 8 8 8 7 7 6 6 6 6 5 5 5 5 5 5 5 5 5 5 6 5 6 6 5 5 5 5 5 5
31 37 46 55 69 73 70 74 79 85 85 83 85 82 78 78 78 79 79 81 85 84 85 88 90 87 82 82 80 75 65 57 56 47 46 56 60 50 44 44 39 43 51 63 63 62 76 83 91 100 99 94 94 99 97 95 91 84 71 56 42 29 20 12 9 9 8 9 8 8 7 7 6 6 6 5 6 5 6 5 5 5 5 6 6 6 6 6 6 6 5 5 5 4 4 4 4
39 48 57 67 78 80 79 84 87 88 86 84 83 83 84 81 80 82 83 82 81 81 82 85 89 87 81 80 70 59 51 45 46 43 42 45 46 41 41 45 50 65 73 80 83 84 91 92 97 97 92 90 86 83 78 71 63 51 39 27 18 11 10 9 10 10 9 9 7 7 6 6 6 6 6 6 6 6 6 6 6 6 6 6 6 6 6 6 5 5 5 4 4 4 5 5 5
50 61 67 71 76 79 85 88 87 87 83 79 79 83 85 78 77 81 82 80 79 81 80 78 80 80 77 75 60 52 54 49 46 46 47 45 46 50 53 62 74 88 89 88 89 83 82 84 89 90 86 81 72 64 53 43 33 24 16 12 10 11 11 10 10 9 8 8 7 7 7 7 7 7 7 6 6 6 6 6 6 6 6 6 6 6 5 5 4 4 4 5 6 6 7 7 8
58 64 67 70 74 78 85 85 86 85 73 73 81 82 77 75 78 80 80 80 82 81 75 73 74 73 71 66 57 57 59 51 48 56 62 60 62 65 66 79 90 93 90 86 84 78 77 75 72 72 70 64 56 46 34 25 19 14 12 12 12 12 10 9 8 7 7 7 7 8 8 8 7 7 7 6 6 6 7 6 6 6 6 5 5 5 5 5 5 6 7 8 8 9 10 10 10
55 59 64 70 76 80 84 85 84 75 67 76 84 79 75 77 79 80 82 85 85 79 74 78 80 74 66 63 65 62 51 46 51 63 74 74 77 80 76 85 88 83 84 82 77 70 62 53 47 45 40 35 29 23 18 15 13 12 12 12 11 9 8 8 7 8 8 9 9 9 8 8 7 7 7 7 7 7 7 6 6 5 5 5 6 7 7 8 8 9 10 10 10 10 10 10 10
54 56 64 75 83 84 81 80 76 69 71 81 82 75 72 73 76 80 84 89 85 76 76 82 80 74 68 67 69 61 49 49 57 67 76 77 83 87 82 83 80 76 80 75 64 53 44 36 30 23 16 14 12 11 11 11 11 11 11 10 9 8 8 8 9 9 9 10 10 9 9 8 7 7 7 7 7 7 6 5 6 6 7 8 9 10 10 10 10 10 10 10 10 10 10 10 10
59 57 66 75 79 83 76 72 72 70 75 77 75 70 68 72 78 83 83 87 84 75 78 79 75 73 70 70 69 67 66 67 70 72 73 78 87 87 83 80 76 76 72 60 48 38 29 23 17 11 8 9 9 10 10 11 10 10 9 9 8 8 8 9 10 10 11 12 11 10 9 8 8 7 8 8 7 6 6 6 8 9 10 11 11 11 11 11 11 10 10 10 10 10 11 10 10
63 60 66 68 69 81 72 62 66 70 73 71 68 66 68 74 80 83 82 85 85 80 83 81 76 75 70 68 72 76 77 76 75 71 68 77 85 81 78 76 71 65 53 41 32 23 16 11 9 9 9 10 10 11 10 10 9 9 9 8 9 9 10 11 11 12 13 12 12 11 9 8 8 8 8 7 6 6 8 10 11 12 12 12 12 11 11 11 11 11 11 11 11 11 11 11 10
66 64 63 63 66 79 69 55 61 69 70 64 63 66 70 74 77 81 81 86 88 84 88 87 79 78 74 70 73 74 71 70 69 69 69 72 75 73 70 65 56 44 32 24 17 11 9 8 9 10 11 11 10 10 9 9 9 9 9 9 10 11 12 13 13 13 12 12 12 11 10 9 9 9 8 7 6 8 10 12 13 13 13 12 12 11 11 11 12 12 12 12 12 12 11 10 9
66 66 61 62 69 75 65 53 58 65 63 59 61 66 69 73 76 78 83 92 90 82 89 93 86 82 78 75 73 69 67 66 65 65 66 67 66 61 52 42 33 24 16 12 9 8 9 10 11 11 11 10 9 9 9 10 10 10 10 10 11 12 13 13 13 12 12 13 13 12 11 9 9 9 8 7 7 8 11 13 13 13 13 12 12 12 12 12 12 12 12 12 11 11 10 9 9
66 66 60 66 72 67 59 52 55 59 57 56 58 62 68 72 73 72 79 91 88 77 80 87 85 80 77 75 71 66 63 61 57 52 50 48 44 37 29 22 15 10 9 8 9 10 11 11 11 10 10 9 9 9 9 11 11 11 11 12 13 13 14 13 13 13 14 15 14 13 11 10 10 10 8 7 7 9 11 13 13 12 12 12 12 12 12 12 12 12 12 11 10 10 9 8 8
70 65 61 65 63 55 51 50 51 55 56 56 56 59 66 68 69 67 68 80 85 75 70 69 69 68 67 66 62 58 55 49 43 36 31 28 24 21 15 11 8 8 9 10 11 11 11 11 10 10 10 10 10 10 11 11 12 12 12 13 14 14 14 13 14 15 15 15 14 13 12 10 10 10 8 7 7 9 11 12 12 12 12 12 12 12 12 12 12 12 11 10 9 9 8 8 8
70 61 59 58 52 49 48 48 50 55 58 56 54 56 62 63 64 63 58 63 73 72 65 60 56 54 54 52 48 46 41 35 29 24 20 17 15 12 9 8 9 10 10 11 11 11 11 10 10 11 10 11 11 12 13 13 13 14 14 15 15 15 14 15 16 16 16 15 14 14 13 11 10 10 8 7 7 9 10 12 12 13 13 13 13 12 12 12 11 11 11 10 9 8 8 7 7
62 55 57 54 49 50 49 51 54 57 58 56 54 55 59 61 59 58 52 47 55 61 58 55 50 45 44 39 34 31 28 23 19 15 12 10 9 8 8 9 10 10 11 11 11 11 11 11 11 11 11 12 12 14 14 13 15 16 15 15 15 15 14 15 16 16 16 15 14 14 13 11 10 10 8 8 8 9 11 13 14 14 13 13 12 12 12 12 12 11 10 9 9 8 7 6 7
52 49 55 55 51 49 48 52 56 58 59 58 55 54 57 57 51 51 49 40 40 46 47 48 42 34 32 28 24 22 19 15 11 9 7 7 8 9 10 10 11 11 11 11 11 12 12 12 12 12 12 12 13 14 15 15 16 16 14 15 16 15 15 15 16 16 16 15 15 15 14 11 11 10 8 8 9 11 13 14 15 14 13 12 12 12 12 12 12 11 9 9 7 6 6 6 7
50 50 54 58 55 47 44 49 55 58 58 60 57 51 52 51 45 43 42 37 33 35 35 36 32 27 25 22 19 15 11 8 7 7 7 8 9 9 11 11 12 11 11 12 12 12 12 12 13 13 13 13 14 15 16 17 17 15 14 15 16 15 14 15 16 16 16 16 16 15 14 12 11 10 8 9 10 13 15 15 14 14 13 13 12 12 12 12 11 9 8 7 6 6 5 7 8
48 49 52 59 59 51 45 45 52 56 57 58 52 43 42 43 41 39 37 33 30 31 29 27 25 21 18 14 11 8 7 7 7 8 8 9 10 10 11 12 12 12 12 12 12 13 13 13 14 14 14 14 15 16 17 17 16 15 15 15 15 15 15 15 16 16 16 16 16 15 14 12 11 10 9 9 12 15 15 15 15 15 14 13 12 12 12 11 9 8 7 6 6 5 6 7 9
45 45 50 56 57 53 45 42 48 55 57 53 45 39 35 35 37 36 33 29 27 26 23 20 16 11 9 7 7 6 7 8 8 9 9 9 10 11 12 12 12 12 12 12 12 13 13 14 15 15 16 16 17 17 17 17 16 15 15 15 15 15 15 15 16 16 16 17 16 16 14 12 12 10 9 10 13 16 15 15 16 16 14 13 12 13 12 10 9 8 6 6 5 5 6 7 9
48 45 51 55 54 54 45 40 44 51 55 48 41 38 32 32 34 32 27 23 20 17 13 10 7 6 6 6 7 7 8 8 8 9 9 10 10 11 12 12 12 12 11 11 12 12 13 15 15 16 17 17 17 17 17 17 16 15 15 15 15 16 16 15 16 16 17 17 17 16 15 13 12 11 9 11 15 16 15 15 16 16 14 13 13 13 11 9 8 7 6 5 4 5 5 7 10
49 46 50 51 50 50 43 43 45 45 46 40 36 34 31 31 32 28 22 16 12 8 6 6 6 6 6 7 7 8 8 8 9 9 9 10 10 11 11 11 11 11 11 11 11 12 13 14 15 16 17 17 16 16 16 16 16 15 16 15 15 16 16 16 17 18 18 18 17 16 15 13 12 11 9 11 15 16 16 16 17 17 14 13 13 12 10 9 8 7 6 4 4 5 5 7 11
43 46 50 48 45 43 39 43 42 37 37 36 34 32 29 30 29 24 16 9 6 5 5 6 7 7 7 8 8 8 8 8 9 9 10 10 10 10 10 10 10 10 10 10 11 11 12 14 15 16 16 16 16 15 15 15 16 15 15 15 15 15 16 17 18 19 20 19 18 16 15 13 12 11 9 12 15 16 16 15 17 17 14 13 13 12 10 8 7 6 5 4 4 5 6 7 11
44 48 52 49 44 40 35 35 35 33 34 32 31 30 28 27 25 20 11 5 5 6 7 7 7 7 8 8 8 8 9 9 9 9 10 10 10 10 10 9 9 10 10 10 11 11 13 14 14 15 15 14 14 15 15 15 15 15 15 15 15 16 18 19 19 21 21 20 18 16 15 13 12 11 9 12 16 17 16 15 17 17 14 14 13 11 9 8 7 6 4 4 4 4 6 7 10
46 48 51 50 45 41 36 33 33 33 32 29 28 27 25 24 21 15 8 6 6 7 7 7 7 8 8 8 8 9 9 9 9 9 9 9 9 9 9 9 9 10 10 11 11 12 12 13 13 14 13 14 14 15 15 15 15 15 15 15 16 18 19 20 21 22 22 20 18 16 15 13 13 11 10 12 16 17 16 16 18 17 15 14 13 11 9 8 7 5 4 3 4 4 5 7 9
46 45 46 48 44 40 37 34 34 33 30 26 25 24 21 19 16 10 6 6 7 7 7 7 8 8 8 8 9 9 9 9 9 10 9 9 9 9 9 10 10 10 11 11 11 12 12 12 13 13 14 14 14 15 15 14 15 15 15 16 17 19 21 21 21 22 22 20 18 16 15 13 13 11 10 13 16 16 16 17 18 17 15 14 13 11 9 8 6 5 4 3 3 4 5 6 8
46 44 42 44 43 39 37 35 33 31 27 22 21 21 18 14 10 6 6 7 7 7 7 7 8 8 8 8 9 9 9 10 10 10 10 9 9 9 9 10 10 10 11 11 11 12 12 12 12 13 13 13 14 14 14 14 14 15 16 17 19 20 22 22 21 22 22 19 17 16 15 13 13 11 10 13 15 16 16 18 19 17 15 14 13 11 9 8 6 4 4 3 3 4 5 6 8
44 44 38 38 39 35 32 31 28 25 22 19 18 16 12 8 6 6 6 6 7 7 7 7 8 8 8 9 9 10 10 10 10 10 9 9 9 9 9 9 10 10 10 11 11 11 11 11 12 12 12 13 13 13 14 14 15 16 17 18 20 21 22 22 21 21 21 19 17 16 15 14 13 11 10 13 15 16 17 19 19 17 15 14 12 11 10 8 6 4 4 3 3 4 5 6 8
39 39 37 36 33 28 26 26 23 20 18 16 14 10 7 5 5 6 6 7 7 7 7 8 8 8 9 9 9 9 10 10 9 9 9 8 9 9 9 9 9 10 10 10 10 10 11 11 11 11 12 13 13 14 15 16 17 18 19 20 21 21 21 21 20 21 21 18 17 16 14 14 13 10 11 14 15 16 18 20 19 17 16 14 13 11 10 8 7 5 4 4 4 4 4 5 7
36 37 39 38 30 23 21 22 20 16 13 11 9 7 5 5 6 6 6 7 7 7 8 8 8 8 9 10 10 10 9 8 8 8 7 8 8 8 8 9 9 9 9 9 10 10 10 11 12 13 14 15 17 18 20 21 22 22 22 22 21 21 21 21 20 20 19 18 17 16 14 13 12 11 12 14 16 18 20 21 19 17 16 14 13 11 10 9 7 5 4 4 4 4 4 5 6
37 36 40 44 37 25 17 17 17 12 9 7 6 5 5 6 7 7 7 7 8 8 8 9 9 10 11 12 12 10 8 7 8 8 8 8 8 8 8 8 9 9 9 10 11 12 14 15 17 20 23 25 27 29 30 30 30 28 26 25 23 22 21 21 20 19 18 18 17 15 13 12 11 11 13 15 18 21 22 20 18 18 17 15 13 11 10 9 8 6 4 4 4 4 5 5 5
36 39 42 46 42 28 16 13 13 11 8 6 5 6 7 8 8 8 8 8 9 9 9 11 12 12 12 13 13 10 8 8 8 9 9 9 9 9 10 10 11 12 14 16 18 21 24 27 31 34 36 38 39 39 38 37 34 32 29 26 23 22 21 20 20 20 18 18 17 15 12 11 11 12 14 18 21 23 22 19 18 18 17 14 12 11 9 9 8 6 5 4 4 4 5 5 5
37 44 48 47 38 24 15 13 12 11 9 7 7 8 8 9 10 10 11 11 11 12 13 14 14 15 15 13 12 10 9 9 10 11 11 12 13 13 14 16 18 21 25 29 33 35 37 40 43 43 43 43 43 40 38 36 34 31 28 25 23 21 20 20 21 21 18 18 16 13 11 11 12 15 18 22 24 23 21 19 19 19 17 14 12 11 10 9 8 7 5 4 4 4 5 5 5
41 48 52 48 38 25 16 15 13 11 11 10 10 11 13 13 13 14 15 16 17 18 18 18 17 18 17 14 12 12 12 13 13 13 14 15 15 18 22 27 31 35 38 40 40 40 40 41 43 43 44 44 43 41 39 36 32 29 27 24 23 21 19 21 22 21 19 18 14 11 11 12 15 19 23 25 24 23 20 19 20 19 17 14 13 11 10 10 10 8 6 5 5 5 5 5 5
43 47 48 42 36 25 15 14 15 14 15 16 17 18 20 20 19 19 21 24 27 28 28 26 23 22 21 20 17 16 17 17 17 18 18 19 23 29 35 37 39 39 38 36 34 35 35 38 41 44 47 48 46 44 40 37 33 29 27 24 22 19 19 22 22 20 19 16 12 11 12 15 20 24 25 25 23 21 20 20 19 18 17 15 13 12 10 11 10 9 8 6 5 5 5 5 6
45 42 41 38 36 32 24 18 16 18 19 18 18 19 19 21 22 22 23 25 28 29 30 30 29 28 28 26 23 20 21 22 24 23 22 28 37 41 40 36 34 32 30 30 30 31 33 35 39 42 44 44 43 42 40 37 34 30 27 23 19 19 21 22 21 20 18 14 12 12 14 19 24 26 26 25 23 21 20 19 18 17 16 15 13 11 10 10 11 10 10 8 6 5 6 6 6
48 40 40 43 43 43 41 33 23 19 20 19 17 16 16 17 17 17 17 16 18 19 21 24 25 25 24 23 22 24 27 29 30 30 32 41 44 39 34 31 30 30 30 31 31 30 30 32 33 33 33 33 34 39 42 39 36 32 26 20 18 20 22 21 20 18 15 13 13 15 18 22 26 27 27 26 25 23 20 19 18 17 17 16 14 11 10 11 11 11 11 9 8 7 6 6 6
52 47 46 47 45 42 42 42 35 23 17 15 15 15 14 12 12 13 14 14 15 16 18 20 21 22 22 24 29 35 38 38 40 43 46 47 41 34 32 31 32 33 31 30 30 28 29 29 29 28 27 26 29 38 45 43 38 32 24 19 20 22 22 20 19 16 13 14 16 19 22 24 26 27 27 27 27 25 21 19 18 17 16 15 14 12 11 11 11 11 11 11 9 8 7 7 6
61 61 59 55 49 45 41 37 36 29 24 24 29 32 28 23 21 19 18 19 21 28 38 41 37 34 34 38 47 51 48 47 48 50 51 47 40 35 34 35 36 33 29 28 29 29 30 29 29 29 27 26 32 42 47 43 37 30 22 19 21 22 20 20 17 14 13 17 22 24 25 25 26 28 27 27 29 27 22 19 17 16 15 15 14 13 12 11 11 11 12 12 11 10 9 8 7
70 70 70 66 60 58 52 43 39 39 42 48 53 55 51 49 49 41 39 41 42 51 66 68 60 52 47 51 58 56 48 47 49 49 49 46 39 33 33 36 35 30 27 27 28 29 30 30 31 30 27 29 37 45 45 39 32 25 19 19 21 21 20 18 15 13 17 23 27 27 26 26 27 27 27 28 30 28 24 19 18 17 16 15 14 14 14 13 13 13 13 13 12 11 10 9 9
67 64 64 63 63 66 64 58 54 54 58 62 64 65 64 65 66 61 61 65 63 66 72 69 61 53 48 52 57 54 48 47 47 46 44 40 34 31 33 34 30 26 25 25 25 27 29 30 32 30 28 32 41 44 39 31 25 20 18 20 20 20 20 17 14 15 20 26 28 27 27 28 28 27 27 28 31 30 25 20 19 18 17 17 16 16 16 15 15 15 14 14 14 13 13 12 11
62 58 57 56 56 60 65 65 63 63 66 68 68 71 71 69 66 64 64 66 65 65 64 58 52 47 45 51 55 51 47 46 44 43 40 37 33 32 31 28 25 24 24 24 25 28 31 31 31 29 28 34 42 42 34 26 21 19 19 20 20 20 19 15 14 17 23 27 27 27 29 29 28 28 28 29 32 31 26 22 21 21 20 20 19 19 18 18 18 17 17 17 17 16 15 14 13
62 60 56 54 51 50 55 62 62 62 64 61 60 65 70 68 63 60 60 62 61 59 55 50 47 45 43 47 51 47 43 42 41 42 39 36 32 29 26 24 23 24 23 25 28 29 29 27 26 27 29 36 43 40 31 23 20 20 20 20 21 20 17 14 15 19 24 26 26 29 30 29 29 29 29 30 33 33 29 25 24 24 24 23 23 22 22 22 21 21 21 20 20 20 19 18 17
56 56 53 53 53 48 48 54 57 57 55 49 47 52 57 58 54 52 54 58 56 51 49 45 41 38 36 40 43 42 40 36 37 41 39 32 28 25 24 23 23 23 24 27 29 29 27 26 26 28 31 37 40 35 26 20 20 21 21 21 20 18 15 14 17 20 23 24 25 30 32 31 30 29 30 31 32 33 31 28 28 28 27 27 27 27 26 26 26 25 25 24 25 24 23 22 21
49 54 54 53 54 52 50 52 55 54 51 46 46 49 54 56 52 46 47 50 48 46 46 39 33 31 32 35 37 37 36 33 35 39 34 26 25 24 23 23 22 23 26 28 28 29 30 30 31 32 33 34 31 26 21 19 20 21 22 22 18 16 14 14 18 21 22 23 25 30 33 33 32 28 28 31 31 33 34 32 32 31 31 31 31 31 30 30 30 30 30 29 29 28 27 27 26
49 53 54 52 53 54 53 53 54 52 49 46 45 46 49 50 45 39 41 47 46 44 43 36 34 36 34 33 35 34 32 32 34 33 27 24 25 23 22 22 23 24 25 28 29 30 31 30 29 29 28 26 23 21 20 20 20 21 22 20 17 16 14 14 19 22 23 24 25 29 31 31 30 26 25 29 32 33 35 35 35 34 34 33 33 33 32 32 32 32 32 32 33 33 32 31 31
50 52 53 51 50 51 52 51 51 51 49 46 45 46 44 40 36 32 34 41 42 39 35 32 34 37 33 31 32 31 30 31 31 27 25 25 24 22 21 22 22 23 24 26 29 30 29 27 25 25 23 22 21 20 20 20 20 21 21 18 16 16 15 14 17 21 23 24 25 25 25 24 23 23 24 27 31 35 35 36 37 38 38 38 36 35 34 34 34 34 34 34 34 35 35 35 34
56 60 58 54 51 52 51 49 50 52 51 50 52 51 46 38 34 32 31 35 38 37 33 30 32 33 31 30 30 29 30 31 28 26 26 24 23 23 22 22 23 23 23 24 27 29 30 28 26 24 23 22 21 20 19 19 20 20 19 17 15 15 16 15 16 19 21 22 22 20 19 18 18 22 24 25 29 35 37 38 40 41 41 41 41 39 39 39 40 40 39 38 36 36 36 37 37
59 66 66 60 56 56 53 49 54 56 52 54 59 57 51 42 35 34 33 31 32 35 33 30 30 31 31 30 30 30 31 31 28 28 28 25 25 25 22 23 24 24 25 25 25 27 29 31 30 28 27 25 23 21 20 20 19 19 18 15 14 14 16 16 15 16 17 18 18 17 17 16 18 24 26 25 28 32 36 38 40 41 41 40 39 39 40 42 44 46 46 45 42 39 38 39 39
54 62 71 67 59 56 53 50 56 59 53 53 60 61 57 49 38 34 34 33 31 31 31 30 30 32 33 33 33 35 35 34 32 30 29 27 26 25 22 24 25 25 27 27 26 27 27 29 30 31 32 31 27 23 21 20 19 18 16 14 13 14 15 17 16 16 16 15 15 15 16 17 20 25 27 27 27 29 33 36 38 39 38 38 36 35 35 37 40 44 48 49 48 45 42 40 41
53 54 62 65 62 56 52 51 55 58 56 52 54 55 49 45 41 32 31 35 34 31 28 25 25 28 32 32 35 40 41 41 37 33 31 29 27 25 23 24 25 25 28 29 29 29 29 29 30 31 32 33 31 26 22 21 20 18 17 15 14 14 15 16 16 17 17 17 16 16 17 18 21 24 26 28 29 29 30 32 34 35 36 36 36 34 33 33 35 39 45 50 51 50 47 44 43
52 50 51 54 58 55 52 52 52 53 55 51 50 47 36 34 39 30 24 31 36 35 31 27 24 25 28 30 32 36 39 39 36 33 33 30 27 27 26 25 24 25 27 28 28 28 30 31 31 32 33 33 33 30 26 22 20 19 18 16 16 15 15 15 15 16 17 17 18 18 19 19 20 22 24 27 29 31 32 32 34 35 35 36 35 34 34 33 34 36 40 46 50 52 52 48 45
46 49 47 47 48 47 50 52 46 44 47 47 50 48 34 30 37 31 22 24 28 33 37 34 29 27 29 33 32 30 30 30 28 28 30 30 28 28 26 23 22 22 23 24 24 23 25 29 31 33 35 36 37 36 33 28 25 23 21 20 20 19 18 17 15 15 16 17 18 18 19 20 21 22 23 25 27 29 31 31 33 33 33 34 33 33 35 34 34 34 36 41 47 52 55 52 49
43 44 42 46 42 35 40 44 38 36 38 40 46 48 36 27 29 27 24 23 21 26 38 41 36 32 34 37 39 37 32 27 23 22 24 26 28 28 25 22 20 19 19 20 20 18 18 21 24 27 31 34 38 39 39 37 34 31 28 25 25 25 23 21 19 18 17 17 18 18 19 20 21 22 23 24 25 26 28 28 29 29 30 30 31 32 34 35 36 35 34 38 46 53 56 56 54
47 44 40 48 45 35 35 35 30 30 32 35 39 41 34 25 22 20 23 27 22 21 32 40 38 37 38 38 40 42 39 31 25 22 21 22 24 25 24 22 18 17 17 17 17 16 15 15 16 18 21 24 30 34 37 39 38 38 37 35 32 30 28 27 25 23 21 19 19 20 20 21 21 22 23 23 24 25 26 27 27 29 30 30 31 32 33 35 37 36 35 37 47 55 57 59 59
48 49 47 48 45 40 40 36 29 27 28 32 35 36 34 32 30 24 21 26 27 24 29 36 36 36 37 35 34 35 35 30 27 26 23 21 22 23 22 20 17 16 15 14 15 15 15 14 13 13 14 16 20 25 30 34 35 37 40 42 41 39 36 35 32 30 27 24 22 22 23 24 24 25 25 25 26 26 26 28 28 30 31 32 32 33 33 34 37 37 35 37 46 56 58 60 62
Wind_Speed
14 13 13 13 14 14 14 15 14 13 13 13 14 14 14 15 16 17 17 17 17 17 19 21 22 24 24 25 25 25 26 25 24 23 22 21 21 21 20 20 20 20 20 19 18 17 17 17 17 17 16 16 15 16 16 17 16 14 12 11 10 9 8 8 8 8 8 8 9 9 10 10 10 11 12 12 13 15 15 16 17 18 19 20 21 21 22 23 24 24 25 26 27 28 29 30 31
13 13 12 13 13 13 13 13 12 11 10 11 12 12 14 16 17 17 17 16 15 16 17 19 20 21 22 22 21 21 22 23 23 22 21 20 20 20 20 21 20 19 17 16 15 15 15 15 14 14 14 14 14 14 15 15 13 11 9 9 8 7 6 6 6 6 7 7 8 8 9 10 11 12 13 14 14 15 16 17 18 19 19 20 21 22 23 24 24 25 26 27 28 29 30 31 32
11 11 10 11 11 11 11 11 9 10 10 10 12 12 14 15 15 16 16 15 15 15 15 16 18 20 21 21 19 18 18 18 17 16 17 17 18 18 19 19 17 15 14 13 13 13 13 12 11 10 11 11 11 11 11 12 11 9 8 8 6 5 5 5 5 6 6 7 8 9 10 11 12 13 14 14 15 15 16 17 18 19 20 21 21 22 23 24 25 26 27 28 29 30 31 32 33
8 8 8 8 9 10 9 9 9 10 11 10 12 11 11 12 13 14 14 13 13 13 13 14 17 18 18 17 16 13 11 10 10 10 12 13 14 14 14 14 13 12 11 10 10 9 9 9 8 7 7 7 5 5 6 8 9 7 7 6 4 4 4 4 5 5 6 7 8 10 11 12 13 13 14 14 15 16 17 18 18 19 20 21 22 23 24 25 26 27 28 29 30 31 32 33 34
6 6 6 6 7 8 9 9 9 10 11 10 10 10 11 11 11 10 9 9 9 9 10 12 12 10 9 8 7 6 4 5 6 7 7 9 10 10 9 9 9 9 8 7 6 5 6 5 5 3 2 2 4 5 6 7 7 6 5 4 3 3 3 4 5 6 7 8 9 10 11 12 13 13 14 15 16 16 17 18 19 20 21 22 23 24 25 26 27 28 29 30 30 31 32 33 33
5 4 5 6 6 7 8 9 9 10 9 7 8 9 9 8 8 6 5 5 6 7 8 9 6 3 4 6 7 6 5 5 6 5 5 6 7 7 7 7 8 7 6 5 4 3 3 4 4 3 3 5 7 7 7 7 6 6 5 4 3 3 4 4 5 6 8 9 9 10 11 12 13 14 14 15 15 16 17 18 19 21 22 23 24 25 26 27 28 29 29 29 30 30 31 31 31
4 4 5 6 6 6 8 8 8 7 6 6 6 7 7 6 5 3 2 4 4 5 7 6 3 3 6 8 9 7 6 6 6 6 7 7 7 8 8 8 7 6 5 5 5 5 5 6 6 5 6 6 7 8 8 7 7 6 5 4 3 3 4 5 6 7 8 8 9 10 11 12 12 13 13 14 15 17 18 19 20 21 22 23 24 25 26 26 27 27 27 28 28 28 29 30 31
5 5 5 4 4 6 7 9 8 6 5 5 5 5 5 5 3 1 1 3 4 4 4 4 3 6 8 9 9 8 8 8 8 8 8 8 8 8 8 7 6 7 8 8 8 8 8 8 8 8 8 7 8 8 7 7 6 5 4 3 3 4 5 5 6 6 7 8 9 10 11 12 12 13 14 15 16 18 19 20 21 22 22 23 23 24 24 25 25 25 26 27 27 28 30 31 32
6 4 4 4 4 6 6 7 7 5 4 4 4 4 4 3 1 1 1 2 3 2 2 2 4 9 9 9 9 9 9 11 10 9 8 8 8 8 9 8 7 8 9 9 10 10 10 9 9 9 8 8 8 8 7 6 5 4 4 3 4 4 5 5 5 6 7 9 10 10 11 13 13 14 15 16 17 18 19 20 21 21 22 22 22 23 23 24 25 25 27 28 29 30 31 32 33
5 4 4 4 3 3 3 2 4 3 2 3 4 4 3 3 1 1 2 2 2 0 2 2 6 10 9 9 9 9 10 11 11 10 8 7 8 10 11 10 9 9 9 10 10 10 10 9 9 9 9 9 8 7 6 5 5 4 3 3 3 3 4 4 6 7 8 10 11 12 13 13 15 15 16 17 18 18 19 20 20 20 20 21 21 22 23 24 25 26 27 28 29 30 32 33 34
3 4 5 3 2 3 2 1 3 2 2 3 4 4 3 2 1 1 2 1 1 2 4 5 8 9 9 10 11 11 11 11 10 9 8 8 10 12 12 11 11 10 10 10 10 10 10 10 10 10 9 8 7 6 5 5 4 3 3 2 2 3 4 5 7 8 10 12 12 13 14 14 15 16 17 18 18 19 19 19 19 19 20 21 22 23 23 24 25 26 27 28 29 31 33 34 36
1 5 5 4 3 3 2 2 3 2 3 4 4 4 3 2 1 1 2 1 1 3 5 6 8 10 10 12 13 13 12 11 11 10 10 11 12 13 12 12 12 11 11 11 11 11 11 11 10 9 8 7 6 5 4 3 2 2 2 1 2 3 5 7 9 10 11 12 13 13 14 15 16 17 17 18 19 18 18 18 19 20 21 22 22 22 23 24 25 26 28 29 31 33 35 36 38
1 3 3 2 2 2 2 3 4 4 4 4 4 4 3 2 1 2 3 2 3 3 6 7 8 9 11 12 12 11 11 10 10 11 11 12 13 13 13 13 12 12 12 12 11 11 11 10 9 8 7 5 5 4 3 2 1 1 2 2 3 5 7 9 10 10 11 12 13 14 15 16 16 17 18 19 19 18 18 18 19 21 22 22 22 23 24 25 26 28 29 31 33 34 36 37 38
1 1 1 0 1 2 2 3 4 5 4 3 3 3 3 3 3 3 4 5 5 4 7 9 9 10 10 10 10 10 10 11 10 11 11 12 13 14 13 13 14 14 13 12 12 11 10 8 7 6 5 4 4 3 2 1 1 2 2 4 5 7 8 9 10 10 12 13 14 15 16 17 17 18 19 20 19 18 18 18 20 21 22 22 22 23 25 26 28 29 30 32 34 35 36 37 39
2 1 1 1 2 3 4 4 5 4 3 2 2 2 3 3 3 4 5 6 6 6 7 9 10 10 11 11 11 12 12 12 12 12 12 12 13 14 14 15 15 15 14 12 11 9 7 6 5 4 3 2 2 2 1 0 1 3 4 6 7 9 9 9 10 12 13 14 15 15 17 17 18 19 19 20 19 18 18 20 21 22 23 23 23 25 26 27 29 30 31 33 34 35 36 38 40
3 1 0 1 3 4 4 5 5 4 3 2 2 3 4 4 4 4 5 6 7 7 7 8 9 10 11 12 12 12 12 12 12 12 13 14 15 15 15 15 15 14 13 11 9 7 6 5 4 3 2 2 1 0 1 1 3 4 6 7 8 9 9 10 11 13 14 15 15 17 18 18 18 19 20 20 20 19 19 21 22 23 23 24 25 26 27 28 30 31 32 33 34 36 38 40 41
2 1 0 1 3 3 4 4 4 4 3 2 2 3 4 4 4 4 4 5 7 7 8 8 8 9 10 11 11 12 12 12 12 13 14 16 16 16 15 14 13 12 10 8 7 5 4 4 3 3 2 1 0 1 3 3 5 6 7 8 9 10 10 11 13 14 15 16 16 18 18 18 18 19 20 21 20 20 20 21 23 23 24 25 25 27 28 29 30 32 33 34 35 37 39 41 42
0 1 1 0 1 2 4 3 4 4 3 2 2 4 4 4 4 4 4 5 7 8 9 9 8 8 9 10 10 11 11 12 14 15 16 17 16 15 14 12 11 9 8 7 6 4 4 3 2 2 1 0 1 2 4 5 6 8 8 9 10 11 11 12 13 14 15 17 17 18 19 19 19 20 21 21 21 20 21 22 23 23 24 25 26 27 28 29 31 32 33 34 36 38 40 42 43
2 2 1 1 1 2 2 3 3 3 3 1 1 3 4 4 4 4 4 5 6 8 9 9 8 9 9 10 10 12 13 14 16 16 16 16 15 14 13 11 9 7 7 6 5 3 3 2 1 0 1 2 2 3 5 6 8 9 9 10 11 12 12 13 14 15 16 17 18 18 19 19 20 20 21 21 21 21 21 22 23 24 24 25 26 27 28 29 30 31 33 34 36 38 41 43 44
3 2 2 1 1 1 1 2 2 2 2 2 1 2 2 3 4 4 5 5 6 7 8 9 9 9 10 11 12 13 15 15 15 15 15 14 13 12 11 9 7 6 5 5 3 3 2 1 0 1 2 3 4 5 6 8 9 11 11 11 12 13 13 13 14 16 17 17 18 19 19 20 20 21 21 21 21 21 22 23 23 24 25 25 26 27 28 29 30 31 33 35 37 40 42 43 44
4 3 3 2 1 0 0 1 1 1 1 1 1 1 2 2 3 4 5 6 6 7 8 9 10 10 12 13 13 14 14 14 13 13 13 12 11 10 9 7 6 5 4 4 3 2 1 0 1 3 4 4 6 7 8 9 11 12 12 12 13 14 14 14 15 16 17 18 18 19 20 20 21 21 21 21 21 21 22 23 24 24 25 26 26 27 28 28 30 31 33 35 38 41 43 44 43
5 4 4 2 0 1 1 0 0 1 1 0 1 0 1 2 3 4 6 7 8 8 9 11 11 12 13 13 13 12 12 12 11 11 11 10 10 9 7 6 5 4 3 3 3 2 1 1 3 4 5 6 7 8 9 10 11 12 13 13 14 14 15 15 15 16 18 18 18 19 20 20 21 21 21 20 21 21 22 23 24 25 25 26 26 27 27 28 30 31 34 36 39 42 44 44 43
4 4 4 1 1 2 1 1 2 1 1 1 1 1 0 2 3 5 7 8 9 10 11 12 13 13 12 12 11 10 10 9 9 8 8 8 7 7 5 4 3 3 3 2 2 1 1 2 4 5 6 8 8 9 10 11 12 13 13 13 14 15 16 16 16 17 18 18 18 19 20 21 20 21 21 20 21 21 22 23 24 25 25 25 26 26 27 28 29 31 34 36 39 43 44 44 43
3 3 3 2 1 1 1 2 1 0 1 1 1 0 1 2 4 6 7 9 10 11 12 12 12 11 11 10 9 8 8 7 6 6 5 5 5 4 3 2 2 2 2 1 2 2 3 4 5 7 8 9 9 10 11 11 13 13 13 14 14 15 16 17 17 17 18 18 18 19 20 20 20 21 20 20 21 21 22 23 24 25 25 25 25 26 26 28 29 31 34 37 40 43 45 44 42
4 3 4 2 2 1 1 2 2 1 0 0 0 1 3 4 5 6 7 9 11 12 11 11 11 10 9 8 7 7 6 5 4 4 3 3 3 2 2 2 2 2 2 2 3 4 5 6 7 8 9 10 10 11 12 13 13 14 14 15 15 16 17 17 17 18 18 18 18 18 19 20 20 21 20 20 21 21 22 23 24 25 25 25 25 25 26 27 29 31 33 36 40 43 44 44 42
5 5 5 3 2 2 2 2 2 2 1 1 1 2 4 6 6 7 8 9 11 11 11 10 9 9 8 7 6 5 5 4 3 3 2 3 3 2 2 2 3 3 4 5 5 6 7 8 9 10 11 11 11 12 13 14 15 15 16 16 16 17 17 18 17 18 18 18 18 18 19 20 20 21 20 20 20 21 22 23 24 25 25 25 25 25 26 27 29 31 33 36 39 42 44 44 42
6 5 5 3 2 2 2 2 2 2 2 2 2 3 5 7 8 8 8 9 9 10 9 9 8 7 6 6 5 4 3 2 2 1 2 2 2 2 2 3 4 5 6 7 8 8 9 9 10 11 12 13 13 14 15 16 16 17 17 17 17 17 18 18 18 18 18 18 18 18 19 20 20 21 20 20 20 21 22 23 24 25 25 24 24 24 26 27 28 30 32 35 38 41 43 43 42
7 5 6 4 2 2 2 2 2 2 2 2 4 4 6 8 9 9 9 8 8 8 8 7 6 6 5 5 4 3 2 1 1 1 2 3 3 3 4 5 6 7 8 8 9 9 10 11 11 12 13 14 14 15 16 17 17 18 18 18 17 17 18 18 18 18 18 18 17 18 19 20 20 20 20 19 20 21 23 23 24 25 24 24 24 24 25 26 27 29 31 34 37 40 42 43 43
8 6 6 5 3 2 2 2 2 3 3 3 5 6 7 9 10 10 9 8 7 6 6 5 5 5 4 4 3 1 0 1 2 3 4 4 5 5 5 6 7 8 9 10 10 10 11 11 12 13 14 15 16 16 17 18 18 19 19 19 18 17 18 18 18 18 17 17 17 18 19 19 20 20 20 20 20 22 23 23 24 24 24 24 23 24 25 26 27 28 30 33 36 39 41 42 42
8 7 7 6 5 3 3 3 3 4 4 5 6 7 9 10 11 10 9 7 6 5 5 5 5 4 3 2 1 1 2 3 3 4 5 5 6 6 7 7 8 9 10 11 11 12 12 13 14 14 15 16 17 17 18 19 19 20 20 20 18 18 18 19 19 18 17 16 16 17 19 19 20 20 19 20 21 22 22 24 25 24 24 24 23 24 25 26 27 28 30 32 35 38 40 41 40
7 7 9 7 5 4 4 4 3 3 5 7 8 9 10 11 10 10 8 7 6 5 5 4 4 3 2 1 1 2 3 4 4 5 5 6 7 7 8 8 9 10 11 12 12 13 14 15 15 16 17 17 18 19 19 20 20 21 21 20 19 18 18 19 19 18 17 16 16 17 18 18 19 20 19 20 21 22 22 24 24 24 24 24 23 24 25 26 26 27 29 32 34 37 39 40 40
6 6 8 8 5 5 5 5 4 3 4 8 10 10 10 10 9 8 7 6 5 5 4 4 4 2 1 1 2 3 4 5 5 5 5 6 7 8 8 9 10 11 12 13 13 14 15 16 17 17 18 18 19 20 20 20 21 21 20 20 19 18 17 18 18 18 16 15 16 17 18 19 19 19 19 20 21 22 23 25 24 24 24 23 23 24 25 25 26 26 28 31 33 36 38 40 40
7 6 7 7 6 5 5 6 6 5 5 7 10 11 11 9 8 7 5 5 5 5 4 3 2 1 1 2 3 4 5 5 5 5 6 7 7 8 9 9 10 11 12 13 14 15 16 17 18 18 18 19 19 20 20 20 20 20 19 19 17 16 16 17 17 17 16 15 16 17 18 19 19 19 19 20 21 23 24 25 24 23 24 23 23 24 24 25 26 26 27 29 32 34 36 39 40
8 6 6 7 6 4 4 6 7 7 6 8 9 10 10 9 7 6 5 5 4 4 4 3 3 2 2 3 4 4 5 5 6 6 6 7 8 9 9 10 11 12 12 13 14 15 16 17 17 18 18 18 19 19 19 19 18 18 17 16 15 15 15 16 16 15 15 16 17 17 18 19 19 18 19 20 22 23 24 24 23 23 23 23 23 24 24 25 25 26 27 28 30 32 35 37 38
9 7 6 7 6 5 4 5 6 7 7 8 8 8 8 7 6 5 4 4 4 4 4 4 4 3 3 3 4 5 5 5 5 6 6 7 8 9 10 11 11 12 13 13 15 16 16 16 17 17 18 18 18 18 17 17 16 16 15 14 14 14 15 15 14 14 15 17 18 18 17 18 18 18 19 21 22 23 23 23 23 23 23 23 23 24 25 26 26 27 27 28 29 31 33 35 36
9 7 7 7 6 5 5 5 6 6 7 7 7 6 5 4 3 3 3 3 2 3 3 4 4 4 3 4 5 5 6 6 5 6 6 7 8 9 11 11 12 12 13 14 15 15 16 16 17 17 17 17 17 17 16 15 14 14 14 13 13 14 14 14 13 13 14 17 18 17 17 17 18 19 20 21 22 22 22 22 23 23 22 22 23 24 25 26 27 27 27 28 28 30 32 34 36
10 8 7 7 7 6 6 6 6 6 6 6 5 4 3 1 1 1 2 1 1 1 3 4 5 4 4 4 6 7 7 7 7 7 8 9 10 11 11 11 12 12 13 14 15 16 17 17 17 17 17 17 16 16 15 14 13 13 14 14 14 15 14 13 11 12 14 16 17 17 17 17 17 19 20 21 22 22 22 23 23 22 22 22 23 24 25 26 27 28 28 29 29 29 31 34 36
10 9 8 7 7 7 6 5 6 6 5 5 4 4 3 2 1 1 2 2 1 0 1 4 6 6 6 6 7 8 8 8 8 9 9 10 11 11 11 11 12 13 14 15 16 17 17 17 17 16 16 15 16 15 14 13 13 13 15 15 15 14 13 12 11 12 15 16 17 16 16 16 17 18 20 22 24 24 24 24 23 23 23 23 24 24 25 26 27 28 29 29 29 29 30 32 35
10 9 8 7 7 7 6 5 5 5 4 4 4 3 3 2 1 1 1 1 1 1 2 4 7 8 8 7 8 9 9 9 9 9 10 10 10 10 10 11 13 14 15 16 17 17 17 17 16 16 15 15 14 14 13 13 13 15 16 16 15 14 12 12 12 14 15 15 16 16 15 15 16 18 21 23 25 26 26 25 24 24 24 24 24 25 25 26 27 28 29 29 30 30 30 31 32
11 10 8 7 7 7 7 7 7 5 4 4 4 3 2 2 1 1 2 3 4 4 5 6 8 10 10 10 11 12 12 11 9 9 9 10 9 10 11 12 13 14 15 16 17 18 18 17 16 16 15 14 13 13 13 13 14 15 16 16 14 13 12 12 14 15 15 15 15 15 14 14 16 19 22 23 25 27 27 26 25 25 24 24 25 25 26 26 27 28 29 29 30 31 31 31 31
11 10 9 8 7 7 6 7 8 7 6 5 4 3 2 1 1 2 3 4 6 7 8 10 12 12 13 12 12 13 11 9 8 8 9 10 10 11 12 13 14 15 17 18 18 19 19 18 17 16 15 14 14 13 12 13 14 15 16 15 13 12 12 13 15 15 15 15 15 15 14 14 17 20 22 23 25 26 27 27 26 25 25 25 25 26 27 27 28 28 29 29 30 30 30 31 31
10 10 9 8 7 7 6 6 7 7 5 3 2 1 1 1 2 3 4 5 7 9 10 12 13 13 13 11 10 11 9 8 8 9 10 11 12 12 13 14 15 17 18 19 20 20 20 19 18 16 15 14 14 13 13 14 15 15 15 14 12 11 12 14 15 14 14 14 15 15 15 16 18 20 22 23 24 25 26 26 26 26 26 26 26 26 27 28 29 29 30 30 30 30 30 31 32
12 12 10 8 7 7 6 5 6 6 5 3 2 1 2 3 3 3 4 5 7 8 10 11 12 12 11 9 8 9 9 8 8 10 11 12 12 14 15 15 16 18 19 20 21 21 20 20 18 16 15 14 13 13 14 15 16 15 14 13 12 12 13 14 14 13 12 13 15 15 16 17 19 21 22 22 23 25 26 26 26 26 26 26 26 27 27 28 29 29 30 30 30 30 31 31 32
14 13 12 10 8 7 6 6 7 6 5 5 5 5 4 3 3 3 4 5 6 7 8 10 11 12 12 9 7 9 9 9 9 10 11 12 13 15 16 17 18 19 20 21 22 21 20 19 17 15 14 14 13 13 15 16 16 15 14 13 12 13 14 14 13 11 11 12 15 16 16 18 20 21 21 21 22 24 25 25 25 25 25 26 26 27 27 28 29 29 30 30 31 31 31 32 32
13 11 10 9 9 9 9 8 8 7 7 7 8 7 5 3 3 4 3 4 6 7 8 10 12 13 12 9 8 10 11 11 10 10 11 13 14 15 15 16 18 19 21 22 21 20 19 18 16 15 14 13 13 14 16 16 16 15 14 14 14 14 15 13 12 12 11 12 14 15 16 18 20 22 22 21 21 23 24 24 25 25 25 25 26 27 27 28 29 30 30 31 31 31 32 32 33
11 10 9 9 9 9 10 9 8 7 7 8 8 8 6 5 4 3 2 2 4 6 8 11 12 13 12 10 10 10 11 12 11 10 11 12 13 13 14 16 18 19 21 21 19 19 19 18 17 16 15 14 15 16 17 16 16 15 14 14 14 15 15 13 12 12 12 12 14 14 16 18 20 22 22 22 22 22 23 23 24 24 25 25 26 27 28 28 29 30 30 31 32 32 33 33 34
9 10 10 10 9 9 9 9 8 7 7 7 6 6 6 5 4 3 1 2 4 5 8 11 12 13 12 10 10 10 11 11 10 9 10 11 11 13 14 16 18 19 21 20 19 19 19 19 18 18 17 16 16 17 16 15 15 14 14 14 15 16 15 13 12 12 12 12 13 14 15 17 19 21 22 23 22 22 22 22 23 24 24 25 26 27 28 28 29 30 31 32 32 33 34 34 35
7 9 9 10 10 9 9 8 8 8 7 6 6 7 7 6 6 5 3 0 3 4 6 9 11 12 12 11 10 11 11 11 10 9 10 10 12 13 15 16 18 19 20 20 19 19 19 19 19 18 18 17 16 16 16 15 14 14 13 14 15 15 15 13 12 12 12 12 13 14 15 17 19 20 21 22 23 22 21 22 22 23 25 26 26 27 28 29 30 30 31 32 33 34 34 35 36
6 7 8 9 9 8 8 8 8 8 7 7 7 8 8 8 7 7 6 4 3 4 5 7 9 11 13 13 12 12 11 10 10 9 10 11 13 14 15 16 18 20 20 20 19 19 19 18 18 18 17 16 16 15 15 15 14 13 13 14 15 15 15 14 13 13 12 13 13 14 15 17 18 19 20 21 22 22 21 21 22 23 25 26 27 28 29 29 30 31 32 33 34 35 35 35 36
5 6 6 7 7 7 8 9 8 7 7 6 6 8 9 9 9 9 8 7 6 7 7 8 9 10 12 12 12 12 11 10 10 10 11 13 13 14 15 16 18 19 20 20 20 19 18 18 18 18 18 17 17 16 16 15 14 13 13 14 14 14 15 15 14 14 14 14 14 15 17 18 18 19 20 20 21 21 21 20 21 22 25 27 28 28 29 29 30 31 33 34 34 35 36 36 37
3 5 5 5 5 6 7 8 8 7 7 6 5 6 8 9 10 8 7 7 7 7 8 8 8 9 10 10 11 12 11 10 10 11 12 13 13 14 15 16 17 18 19 20 19 19 19 18 18 18 18 18 17 17 17 16 15 14 14 14 14 14 15 15 15 15 15 16 16 17 18 19 19 19 19 19 20 20 20 20 21 23 26 28 29 29 29 30 31 32 33 34 35 36 37 37 38
1 2 3 3 4 5 6 7 7 6 6 5 4 5 7 8 9 8 7 6 7 7 7 7 7 7 8 9 10 12 11 9 9 10 11 12 12 13 14 15 16 17 18 18 19 19 19 19 19 18 17 18 17 17 17 17 17 16 16 15 15 15 15 16 16 16 17 17 17 18 19 19 18 19 19 20 20 20 21 21 22 24 27 28 29 30 30 31 32 33 34 34 35 36 37 38 38
1 1 1 1 3 4 5 5 5 4 4 4 3 4 5 7 8 9 8 8 8 8 8 7 6 6 6 7 8 9 9 8 7 8 9 10 11 13 14 15 16 16 17 17 18 18 18 19 19 19 18 17 17 17 16 17 17 17 17 17 16 16 16 16 16 17 17 17 17 18 18 18 18 19 20 20 20 21 21 22 23 25 26 28 29 30 31 31 32 33 34 34 35 36 37 38 39
3 2 1 0 1 3 4 4 3 3 3 3 3 3 5 7 7 9 10 10 9 9 9 8 7 7 6 7 7 6 6 6 5 6 8 9 10 12 14 15 15 16 16 17 17 17 17 18 19 19 19 18 18 17 16 16 17 17 17 17 17 17 16 16 17 17 17 17 18 18 18 19 19 19 20 20 21 21 22 23 24 25 26 27 29 30 31 32 33 33 34 34 34 35 36 38 40
4 3 2 0 2 2 2 3 2 3 3 2 3 4 6 7 7 8 10 10 10 11 10 9 9 8 8 8 7 6 5 5 6 7 8 8 9 11 12 13 14 15 16 17 18 18 17 17 17 19 19 19 19 19 18 17 16 17 17 17 18 18 18 18 18 18 18 18 19 19 19 19 20 20 20 21 21 22 22 23 24 25 27 28 29 30 31 32 33 34 34 34 34 35 36 38 40
3 3 1 1 2 1 1 1 2 4 5 4 3 4 5 6 7 9 10 10 11 11 10 9 9 9 9 8 8 8 7 6 7 8 8 9 9 10 11 12 13 14 15 16 17 18 18 17 17 18 19 19 20 20 20 19 18 17 17 18 18 18 19 19 19 19 20 20 20 20 20 20 21 21 21 22 22 23 24 24 25 26 27 28 29 30 31 32 33 34 34 34 34 35 36 37 39
4 3 1 2 1 1 2 2 2 4 5 5 5 4 5 5 8 10 10 10 12 11 10 9 9 8 8 8 8 8 7 7 8 8 8 8 9 9 10 11 12 13 14 15 16 17 18 18 18 18 18 19 19 20 20 20 19 19 19 18 18 18 18 19 19 20 20 21 22 22 22 22 22 22 23 23 24 24 25 26 26 27 28 28 29 30 31 31 32 33 34 34 34 35 35 37 39
4 3 2 1 1 2 3 2 3 4 4 5 5 5 5 5 7 10 10 9 11 12 10 8 8 9 9 9 9 9 9 9 9 9 9 9 9 9 10 10 11 13 14 15 16 16 17 18 18 19 19 19 19 19 19 19 19 19 19 19 18 18 18 19 19 20 20 21 22 23 23 24 24 24 25 25 25 25 26 27 27 28 28 29 29 30 31 31 32 33 34 34 35 35 36 37 38
Wind_Direction
244 244 247 254 262 265 267 266 265 266 265 262 262 265 269 272 272 273 276 277 277 276 276 276 275 272 270 269 268 267 266 265 263 260 259 258 258 259 259 262 266 269 268 268 267 265 265 266 269 270 270 270 266 262 257 253 252 253 255 257 259 263 269 276 281 286 289 292 292 293 293 293 294 294 295 295 295 295 295 294 294 293 293 293 293 293 293 292 292 292 292 292 292 292 291 291 291
241 244 251 260 266 267 266 264 261 259 258 259 261 264 271 272 271 272 274 276 278 276 276 278 276 274 272 271 270 268 267 266 262 257 256 256 257 259 258 259 263 265 265 263 261 258 259 263 268 270 272 271 267 260 253 248 244 241 243 249 252 258 267 275 280 284 286 289 290 292 292 293 293 293 293 293 294 294 294 294 294 294 295 295 295 296 295 295 295 295 295 294 294 294 294 293 292
244 252 262 267 267 264 261 258 251 243 245 264 272 271 273 272 271 271 270 274 276 275 276 277 277 274 272 271 270 270 268 264 260 254 252 254 254 254 253 255 259 259 256 253 252 251 253 259 265 269 273 272 265 257 250 239 227 222 229 235 240 249 261 269 276 280 284 287 289 290 290 291 291 292 293 294 295 296 297 297 297 298 298 299 299 298 298 298 298 298 297 296 296 296 295 294 294
259 268 271 266 266 263 255 247 239 238 250 273 278 278 278 275 273 268 265 269 272 274 276 280 281 275 269 267 265 263 262 256 251 246 244 246 246 247 249 249 250 249 246 245 247 248 250 255 259 263 270 270 254 228 213 203 197 201 210 214 222 234 249 263 272 277 282 285 287 288 289 291 293 295 297 300 301 302 302 302 303 303 303 303 303 302 302 302 301 300 299 299 299 298 297 296 296
275 275 261 250 259 257 246 237 237 250 265 276 275 279 277 268 263 257 256 264 271 275 279 288 288 274 260 248 235 225 221 219 222 226 228 231 232 234 235 235 234 230 225 228 235 246 248 238 235 237 229 181 150 149 149 158 172 181 185 189 205 220 236 252 263 272 279 283 287 290 293 297 300 302 304 306 306 306 306 306 306 306 305 305 305 305 304 303 302 302 302 301 301 300 299 299 298
275 262 237 238 246 244 238 236 247 261 271 274 271 273 263 246 244 245 251 264 275 280 286 294 286 251 201 180 166 159 164 171 183 190 194 201 203 203 204 203 207 206 197 202 207 209 200 178 174 168 139 124 126 130 135 145 155 158 163 174 193 212 232 250 265 277 283 288 293 297 300 303 305 307 307 309 310 309 309 309 308 307 307 307 307 306 305 304 304 304 304 303 303 302 302 302 301
233 219 222 237 240 237 237 240 256 265 268 271 263 255 240 227 235 241 255 268 284 288 293 295 260 173 154 157 153 153 154 153 160 166 171 176 175 176 178 177 178 176 171 176 167 154 151 145 147 145 136 133 134 135 140 146 147 149 157 171 194 225 249 266 275 282 290 295 299 304 307 308 309 310 311 313 313 313 312 311 310 309 309 309 309 308 307 307 306 306 306 306 306 306 306 306 305
204 210 221 240 242 243 249 252 261 266 265 263 245 234 223 218 227 228 256 281 295 294 297 288 218 160 150 152 153 157 154 147 147 152 163 170 167 167 168 164 154 148 153 158 150 143 141 139 139 138 140 143 138 138 141 144 146 152 164 185 220 245 262 270 275 287 299 306 310 314 315 315 316 317 318 319 318 317 314 312 312 312 312 312 311 311 310 310 310 311 311 311 311 310 309 308 307
219 221 227 243 248 251 261 258 254 257 256 242 224 210 192 183 196 284 315 304 299 306 313 286 176 157 151 149 150 154 153 146 144 149 162 173 172 169 162 153 146 144 149 150 143 138 138 137 135 136 140 140 137 140 143 147 155 167 186 215 240 253 262 272 294 311 318 322 323 324 323 323 323 323 323 322 321 318 315 314 315 316 317 317 316 317 317 317 317 316 316 315 313 312 311 309 308
230 236 238 237 250 253 268 251 223 239 243 221 207 186 162 149 156 340 357 320 282 116 72 84 140 150 148 144 144 148 149 145 147 154 163 173 168 162 157 150 145 144 144 143 138 137 136 135 135 137 140 138 139 143 149 160 172 183 204 226 245 263 284 313 327 330 333 334 332 329 328 328 327 326 326 325 323 320 319 318 320 321 322 322 322 323 322 321 319 318 316 315 313 312 310 309 307
232 255 257 244 272 262 251 173 179 208 225 213 199 180 156 139 140 48 29 353 240 146 114 107 127 141 145 143 142 142 140 141 148 153 152 148 146 148 150 146 141 140 140 138 137 136 136 137 138 139 138 137 142 150 163 175 179 188 209 229 265 302 326 338 338 341 343 339 334 331 330 330 329 329 329 327 325 324 323 324 326 327 327 327 326 325 323 321 319 318 316 315 313 312 311 310 310
249 271 271 254 260 243 212 142 164 193 207 202 186 172 151 137 127 58 42 57 159 147 133 127 131 141 151 150 149 147 143 146 150 151 143 136 138 142 142 139 137 137 137 137 137 138 140 140 138 138 139 143 152 164 174 174 173 199 230 271 320 333 344 347 347 347 342 336 333 332 331 333 333 332 331 328 327 328 328 330 331 332 330 328 325 324 323 322 321 320 319 318 317 316 315 314 312
250 285 293 257 232 203 172 146 167 185 189 179 165 159 137 126 109 66 55 101 141 134 130 132 135 147 157 155 154 154 150 149 149 146 140 136 138 138 137 137 136 135 135 137 138 140 140 138 138 141 146 153 159 165 167 159 175 255 295 337 339 346 355 352 347 341 338 337 335 334 335 336 335 334 333 332 332 332 331 332 333 332 329 326 324 325 325 324 323 322 322 321 319 318 316 315 314
265 329 347 14 168 181 181 169 171 175 177 162 141 131 111 102 84 70 76 115 139 134 128 131 138 149 154 153 152 147 140 139 138 135 132 132 133 132 133 135 135 134 135 137 139 140 138 138 142 146 149 155 158 159 155 145 285 300 330 350 347 353 356 348 341 339 342 342 336 337 339 338 337 336 336 336 335 332 331 332 331 330 328 326 326 326 326 326 325 325 324 322 320 319 317 317 317
8 354 24 99 142 176 188 180 172 166 172 151 116 98 90 86 74 70 85 117 135 131 127 130 138 146 146 147 145 140 137 136 136 133 131 131 130 129 131 134 135 135 137 138 138 138 137 139 141 140 142 149 160 159 150 157 309 323 347 354 350 351 347 342 344 346 346 341 336 340 343 340 339 338 338 338 335 333 332 332 331 330 329 328 327 327 327 328 328 327 325 323 322 321 321 321 320
12 13 47 126 145 171 180 175 168 161 170 162 126 102 93 82 72 73 85 113 131 135 136 135 140 144 145 146 144 143 142 141 140 137 135 133 131 131 133 134 135 135 135 135 133 133 136 138 135 135 141 149 182 277 339 329 335 343 350 348 343 340 338 345 350 349 345 338 338 344 344 341 339 338 339 339 337 335 334 332 331 330 330 330 330 330 330 330 330 328 326 325 325 325 324 323 321
3 55 282 133 136 166 174 169 162 156 168 168 134 116 107 90 82 89 100 119 138 146 148 146 146 149 149 148 147 148 145 142 139 136 133 132 131 131 132 133 133 133 131 129 128 131 133 133 134 147 159 167 235 349 334 332 346 344 338 336 334 331 337 350 351 347 343 338 342 345 343 341 340 340 341 341 339 337 336 334 332 332 332 332 332 332 332 332 331 329 329 329 328 327 325 323 322
277 138 183 88 101 168 170 168 160 154 163 163 142 132 120 103 95 104 119 134 148 153 155 155 153 152 153 150 147 145 142 137 133 131 130 129 129 130 132 134 134 131 127 125 124 126 129 138 154 168 185 208 351 341 325 332 341 329 323 329 329 329 338 351 348 343 340 340 343 343 340 341 342 342 343 343 341 339 338 336 334 334 334 334 334 334 334 333 331 331 331 331 330 328 326 324 323
140 118 135 19 307 196 179 186 173 167 159 135 145 142 128 117 109 119 136 150 157 157 156 156 154 151 149 145 140 137 134 131 129 128 127 128 130 132 135 135 134 129 123 119 119 128 141 153 157 187 306 315 320 320 321 329 327 316 317 328 329 328 338 348 344 339 337 339 342 341 340 344 345 344 345 344 342 340 339 338 337 336 336 336 336 336 335 333 333 333 333 332 330 329 327 326 326
107 113 123 54 293 207 189 201 189 199 161 114 155 156 132 126 123 131 143 150 154 155 152 149 148 143 139 135 132 131 128 127 127 128 129 131 134 136 137 135 133 128 122 120 127 140 148 151 349 306 299 305 311 318 322 323 318 314 319 329 330 330 337 343 340 336 335 338 341 339 341 346 346 345 346 344 342 341 341 339 338 338 338 338 337 336 335 335 335 335 334 333 332 331 330 330 330
99 115 108 73 309 70 312 214 187 228 189 129 171 163 130 131 132 136 142 142 140 142 141 138 136 132 129 127 126 125 126 126 129 132 135 138 140 139 138 137 137 132 131 139 150 160 165 230 293 293 298 307 314 318 317 316 315 316 325 332 333 333 336 340 338 335 333 336 339 339 342 347 347 345 346 344 342 342 342 340 340 340 339 338 337 336 336 337 337 337 336 335 334 333 332 333 333
86 94 89 73 211 51 346 257 59 330 308 258 219 304 101 122 132 140 141 136 133 135 134 130 128 126 123 123 124 126 128 131 135 138 140 142 143 142 144 146 146 145 157 166 168 181 200 265 291 298 304 308 311 311 312 315 317 321 330 334 334 335 336 338 337 335 333 335 339 339 342 348 347 345 345 343 342 343 343 341 340 340 339 339 338 337 337 339 339 338 337 337 336 335 335 336 335
62 75 85 85 89 53 21 62 40 359 315 304 307 320 36 113 138 146 141 134 131 131 130 127 126 124 123 124 127 129 131 134 138 140 141 144 146 149 154 156 160 169 188 192 200 231 263 287 292 295 298 301 303 306 312 317 319 324 331 333 335 337 336 337 337 336 335 335 338 340 342 347 346 345 344 343 342 344 343 340 339 339 339 338 338 338 339 340 340 340 340 339 338 337 338 339 338
49 65 81 71 67 65 86 86 64 353 289 301 317 331 109 125 144 145 140 134 130 128 127 127 126 125 125 128 130 131 131 134 137 140 144 150 154 161 169 181 199 210 218 235 266 284 292 289 286 289 293 297 303 310 316 319 321 325 330 332 336 338 336 336 337 337 335 335 338 339 342 346 345 344 344 342 342 343 342 338 337 338 338 337 338 339 341 341 341 342 342 341 340 340 341 342 340
64 64 68 61 60 69 108 112 141 158 200 281 14 125 132 136 143 141 139 134 130 129 130 130 128 128 129 130 131 130 130 133 138 145 157 167 176 191 215 241 258 269 277 286 288 289 289 286 287 291 296 302 310 315 318 319 321 325 330 334 336 337 335 334 337 338 335 334 337 339 342 345 344 343 343 342 342 342 339 335 335 337 337 337 339 341 342 343 344 344 344 343 343 343 344 344 342
76 72 64 55 64 65 92 121 151 145 149 146 101 138 140 140 141 137 137 134 131 132 133 132 130 130 131 131 129 129 130 135 145 162 185 200 208 223 253 278 292 299 301 299 294 290 289 289 294 299 303 310 315 317 319 320 323 325 329 333 335 336 333 333 337 339 334 334 336 338 342 344 343 342 342 342 341 340 337 334 334 335 335 337 340 342 343 344 345 345 346 345 345 346 346 346 344
76 81 72 49 52 77 100 120 140 137 141 139 132 143 142 141 139 137 138 137 135 136 135 132 131 132 132 131 130 130 131 139 163 196 222 234 242 253 275 292 299 300 299 296 294 294 296 298 303 307 310 315 318 319 320 320 322 324 327 331 333 334 332 333 338 338 334 333 335 338 342 343 342 341 340 341 340 338 336 333 333 334 334 337 341 343 343 345 347 347 347 347 347 348 349 349 347
69 72 76 59 35 55 85 111 132 123 120 131 128 135 142 141 140 140 141 141 140 140 137 132 135 139 136 133 130 129 126 149 272 289 289 287 285 287 292 293 296 297 297 296 297 300 303 305 309 311 313 316 317 318 318 318 320 322 325 329 331 333 331 333 337 336 333 332 334 338 342 342 341 340 339 340 338 337 336 333 333 333 334 338 342 343 343 345 348 348 348 348 349 350 351 352 350
71 67 80 84 66 56 65 80 109 108 110 126 127 133 141 142 142 142 141 141 141 144 142 141 147 147 141 136 130 118 354 309 311 310 304 299 294 293 292 291 294 297 299 300 302 304 305 307 311 313 314 314 315 316 317 317 319 321 323 327 330 331 331 332 335 334 332 331 334 339 341 340 340 339 338 338 337 336 336 334 333 333 334 338 342 344 344 346 348 349 349 350 351 351 352 354 353
77 80 82 83 79 74 77 81 94 109 123 131 130 135 141 141 141 141 142 142 145 153 154 154 156 153 145 136 113 11 316 309 309 309 305 301 296 294 292 292 296 300 302 304 305 306 308 311 313 313 313 314 315 316 317 318 320 322 323 326 329 330 331 332 332 332 331 331 335 339 340 339 338 338 338 337 336 336 336 334 333 333 334 339 343 344 344 346 348 349 349 351 352 352 353 356 356
71 84 84 79 79 81 81 85 94 119 137 136 132 134 137 138 140 142 146 147 149 158 164 169 171 163 153 126 347 324 313 310 310 311 310 306 301 299 298 299 303 305 305 305 307 310 313 314 314 315 316 317 318 319 320 321 322 323 323 325 328 330 331 330 329 329 329 332 337 338 339 338 337 337 337 337 335 336 337 335 334 333 335 340 343 344 344 346 348 349 349 351 352 353 354 356 358
64 75 84 85 88 95 98 99 101 120 141 138 134 136 136 136 140 145 149 150 153 163 171 182 189 181 163 330 324 320 316 312 312 317 317 312 307 304 304 307 309 309 308 310 313 316 318 318 318 318 321 322 322 322 323 324 325 325 324 326 329 330 328 326 326 326 328 332 337 338 338 337 337 337 337 337 336 338 339 336 335 334 336 340 342 344 344 346 348 349 348 350 352 353 354 356 358
73 74 84 86 84 92 109 114 115 120 132 134 133 136 136 136 140 146 154 156 160 172 180 192 215 233 289 320 323 324 322 319 322 327 325 319 314 312 312 313 314 314 315 318 320 322 322 321 320 320 322 324 324 325 326 327 327 326 326 327 329 328 324 323 323 324 328 333 337 339 337 336 338 339 338 338 338 340 339 336 335 336 337 339 343 344 344 346 348 348 348 349 351 352 353 355 357
80 80 85 88 86 84 99 113 118 121 126 130 132 135 136 137 143 151 162 167 172 186 194 207 227 250 284 321 331 325 322 328 332 330 327 324 323 322 321 321 322 321 320 321 323 323 322 321 320 321 324 327 328 328 329 330 329 328 327 329 329 325 321 321 322 325 329 334 337 339 337 337 340 342 342 341 339 340 339 337 337 337 338 340 344 344 344 346 349 348 348 348 350 352 353 354 356
78 81 83 88 95 97 100 107 115 122 127 129 131 134 136 141 150 158 170 178 187 201 214 225 238 260 298 332 336 321 316 325 327 323 327 329 328 326 325 325 324 322 321 323 324 322 321 322 324 327 331 333 334 333 333 333 332 329 328 329 327 322 321 322 324 329 333 335 335 338 339 341 344 346 345 343 341 342 340 339 339 339 339 342 345 344 344 347 348 348 347 347 349 350 352 353 355
76 80 83 82 91 106 116 116 116 122 128 131 132 130 131 144 158 167 182 195 211 229 245 253 258 274 310 331 322 306 305 309 311 316 324 328 327 326 326 326 326 326 327 327 328 327 327 332 334 336 338 340 339 338 338 336 333 330 327 327 326 324 324 326 331 335 335 333 334 339 343 346 351 350 348 346 345 345 343 342 342 342 342 344 346 344 344 347 347 347 347 347 348 349 350 351 352
81 83 85 80 82 94 108 117 122 126 130 132 131 127 124 145 197 209 199 199 218 256 283 283 282 290 308 317 307 301 303 307 313 319 321 324 326 328 328 329 333 334 334 335 337 338 338 340 341 342 343 343 342 342 341 338 334 330 327 328 330 329 329 334 339 338 335 333 335 343 348 352 356 354 352 353 352 351 348 346 346 346 346 347 347 345 345 347 347 346 347 347 347 348 350 349 349
88 88 88 86 85 85 89 101 117 125 130 134 134 135 137 145 207 218 197 181 173 190 306 301 297 298 300 302 302 302 304 308 315 318 320 325 327 329 332 336 341 341 342 345 346 344 343 343 343 343 345 345 344 344 343 341 337 333 331 334 335 335 336 339 341 337 335 336 340 349 354 355 358 357 357 358 359 357 354 351 350 349 349 349 348 346 346 348 347 346 347 347 346 347 349 349 348
94 92 88 88 90 92 97 106 113 121 135 145 142 142 144 147 174 216 242 243 284 317 317 305 296 294 295 299 302 302 304 307 312 319 324 327 328 333 338 342 345 345 347 348 346 345 345 344 344 345 348 350 347 346 345 343 340 338 337 339 340 341 341 340 339 338 340 344 347 354 357 356 356 356 357 359 0 360 357 355 353 352 352 352 350 348 348 348 347 347 348 347 346 347 348 348 347
98 97 94 92 94 98 111 126 131 133 144 151 145 139 143 150 172 275 303 314 320 320 317 303 293 293 296 302 304 304 307 309 316 329 334 333 333 336 340 343 344 343 345 347 346 348 347 346 348 352 354 356 355 352 349 345 344 342 342 343 343 344 343 339 339 342 347 352 355 357 357 354 352 352 354 356 359 359 357 356 355 354 354 354 352 350 348 348 348 348 349 349 347 347 347 346 346
96 96 98 102 107 110 120 137 142 146 151 155 146 140 165 192 271 302 305 314 314 315 312 300 295 296 298 305 308 308 312 317 329 341 342 337 336 339 342 343 343 343 348 351 351 351 350 349 353 356 358 1 1 358 353 348 346 345 344 346 347 345 343 341 342 347 353 358 360 358 356 353 351 350 351 354 357 358 357 357 357 356 356 355 354 352 350 349 349 350 350 350 349 347 346 345 345
88 88 94 103 115 124 136 147 146 140 133 135 143 163 255 289 317 309 304 304 302 304 305 300 299 299 303 315 317 312 317 328 341 348 345 340 340 344 348 347 348 351 355 355 354 354 352 351 353 357 1 4 4 1 355 350 348 347 347 349 349 345 344 344 345 350 358 1 1 0 359 355 351 350 351 353 356 357 357 357 358 358 357 357 356 354 352 351 350 350 350 351 350 349 348 346 345
83 83 87 96 108 122 139 148 139 123 106 95 99 79 19 6 355 331 321 314 306 305 303 300 301 303 315 330 321 312 322 334 347 352 346 343 345 351 355 356 357 359 358 356 354 354 353 353 354 358 3 6 5 0 355 351 350 350 351 352 350 346 345 345 346 353 360 2 3 4 2 358 354 352 352 353 355 357 357 358 359 359 359 358 357 355 354 352 351 351 351 351 352 351 350 348 346
84 82 79 83 89 97 109 125 131 118 100 90 84 78 66 37 18 6 348 331 319 312 305 303 305 312 328 341 326 319 330 341 352 352 346 346 353 359 1 2 2 1 358 355 354 355 355 357 358 1 5 7 4 359 355 354 354 354 354 355 352 347 346 345 346 353 360 1 2 4 4 1 359 357 357 356 355 357 358 360 0 0 360 358 357 356 354 353 352 351 351 352 353 353 352 350 348
90 81 74 73 73 76 85 103 120 113 94 86 81 80 84 65 32 21 2 330 315 311 310 311 313 319 332 342 336 334 340 347 351 349 348 354 1 5 5 4 3 1 358 356 358 0 2 3 5 7 8 7 3 359 357 358 357 357 357 355 351 347 345 344 347 353 358 360 1 3 4 3 3 2 1 358 356 357 358 360 1 0 360 359 358 357 355 355 353 352 351 352 353 353 352 352 351
94 80 68 69 67 64 70 83 99 103 98 94 86 84 83 68 40 16 343 307 309 317 317 315 316 319 325 336 340 340 344 348 350 352 356 2 6 8 8 6 5 3 1 1 6 10 9 9 10 11 12 10 6 1 359 360 0 359 357 353 349 346 345 346 348 350 353 356 358 1 2 2 1 1 1 359 357 357 357 359 360 359 359 359 358 357 356 355 354 353 352 352 353 353 353 352 352
88 81 68 66 66 59 58 66 77 88 101 102 86 72 61 47 35 24 341 270 291 312 315 314 319 323 327 339 346 346 350 354 358 3 5 7 8 7 9 9 8 7 6 9 14 16 14 14 14 14 14 11 7 3 360 0 1 359 356 350 346 346 346 346 347 346 348 351 354 356 357 356 356 356 358 358 357 356 355 356 357 357 357 357 357 355 355 355 354 352 352 352 353 353 353 353 352
73 77 70 66 65 59 54 57 61 65 72 73 56 40 33 28 25 27 41 254 285 308 320 324 329 335 345 0 3 359 2 6 9 10 7 6 6 7 10 12 12 12 12 14 18 19 18 16 15 14 14 11 6 3 360 359 360 358 355 349 346 346 345 344 343 342 343 346 348 349 350 350 350 350 352 355 355 354 354 354 355 355 356 356 355 354 353 354 353 351 351 352 352 352 353 353 352
68 68 65 65 67 62 54 48 46 46 44 40 34 26 23 22 21 24 35 47 13 344 348 348 346 352 0 8 10 9 11 13 11 8 5 5 7 9 11 13 14 14 16 17 18 19 18 15 14 13 12 10 7 4 1 359 358 356 352 348 346 345 345 343 339 336 338 341 342 343 343 344 345 347 348 350 353 352 352 354 356 357 358 357 356 354 353 352 351 351 350 351 351 351 351 352 352
76 73 61 56 60 58 50 41 35 34 28 20 15 13 11 13 20 25 25 27 21 5 3 4 3 5 9 10 10 12 15 10 3 2 4 6 9 10 11 12 13 14 16 17 16 16 15 13 13 12 10 9 7 4 1 358 355 353 349 346 345 345 345 343 337 332 331 333 335 337 338 339 342 344 345 346 348 348 349 351 354 355 355 354 352 350 349 349 348 348 348 349 349 349 349 350 351
86 81 64 48 50 52 49 40 29 25 22 11 3 1 359 3 14 24 24 26 28 17 9 7 5 9 16 16 12 13 13 2 353 357 3 7 10 10 11 11 10 12 15 15 14 14 13 11 10 10 8 6 6 3 360 356 352 350 348 345 345 346 344 344 340 333 330 328 329 332 334 336 340 343 342 342 343 343 343 344 345 346 346 345 344 343 342 341 341 342 343 345 347 348 348 348 350
82 93 66 28 24 43 55 48 32 27 23 10 349 341 346 357 12 21 25 29 32 24 13 4 359 5 17 23 17 11 6 355 348 354 2 8 11 11 10 10 8 8 11 12 11 11 11 9 7 7 7 5 5 3 358 354 350 349 348 345 345 346 344 344 342 339 336 332 331 332 333 335 338 341 340 339 339 338 337 337 337 338 339 340 340 339 338 337 336 337 339 341 343 345 347 347 348
194 199 116 348 352 31 57 59 41 33 24 3 336 328 345 2 13 18 25 32 32 25 14 8 4 4 16 32 29 12 2 357 355 1 7 9 11 10 9 8 5 3 5 7 7 7 7 6 4 4 5 5 4 2 358 354 350 347 346 344 344 345 344 343 342 342 341 339 337 336 335 335 337 339 339 338 337 336 335 335 335 336 337 338 338 338 338 337 337 337 337 339 341 343 345 346 347
239 248 213 203 28 41 54 62 58 56 40 354 334 340 357 11 19 21 25 31 35 28 18 13 16 15 20 35 39 24 10 9 13 19 19 13 11 10 7 5 4 2 3 5 4 3 2 1 0 0 1 3 3 2 359 355 350 346 345 344 343 343 343 342 341 342 342 341 341 340 339 339 339 338 338 337 337 336 334 334 334 335 336 337 337 337 338 338 338 338 338 339 340 341 343 345 347
230 240 237 74 51 38 41 56 73 74 59 5 341 343 357 13 22 21 22 26 29 28 20 12 9 12 18 29 37 33 22 20 24 28 26 17 12 9 5 4 5 4 5 5 4 2 1 359 357 356 356 358 359 359 357 354 350 347 345 344 343 342 342 342 341 341 341 341 341 341 340 340 339 338 338 337 336 334 333 333 333 334 335 335 336 337 337 337 338 339 340 340 340 340 341 344 346
196 192 195 26 25 42 81 82 78 67 66 55 25 356 353 10 17 14 16 20 22 23 22 14 5 4 10 20 29 29 24 23 27 29 27 21 14 6 2 4 7 7 8 8 6 4 3 1 358 355 353 354 355 355 354 351 349 348 346 345 343 342 341 341 342 342 342 341 340 339 339 339 339 338 338 337 336 335 334 334 334 335 335 336 336 337 337 337 338 340 341 341 341 340 341 343 345
161 160 151 359 353 98 89 89 77 63 69 69 51 17 353 2 10 9 10 13 13 14 17 13 3 360 5 14 21 22 23 27 28 25 23 20 13 4 1 3 6 8 8 9 8 5 5 4 2 359 357 355 354 353 351 349 348 347 345 344 343 341 340 340 342 343 342 342 340 339 338 338 338 338 337 337 337 337 336 336 336 336 337 337 337 337 337 337 338 340 341 341 341 341 341 342 344
180 173 174 245 289 31 32 52 80 77 70 57 48 34 10 354 353 359 7 12 7 5 7 4 355 356 2 10 17 20 22 25 24 19 15 14 9 1 359 2 4 5 5 7 7 5 4 4 4 3 2 1 358 355 352 349 347 347 345 344 343 342 342 341 342 342 342 341 340 338 337 337 337 337 337 337 337 337 337 336 336 336 336 337 337 337 337 338 339 340 341 342 342 342 342 343 344